2024/03/02 00:00:00, 4.7,-0.8
2024/03/02 00:10:00, 5.0,-1.0
2024/03/02 00:20:00, 5.4,-1.0
2024/03/02 00:30:00, 6.1,-0.8
2024/03/02 00:40:00, 6.7,-0.9
2024/03/02 00:50:00, 6.8,-0.9
2024/03/02 01:00:00, 7.5,-1.1
2024/03/02 01:10:00, 8.1,-1.2
2024/03/02 01:20:00, 8.6,-1.0
2024/03/02 01:30:00, 9.2,-1.3
2024/03/02 01:40:00,10.2,-1.2
2024/03/02 01:50:00,10.8,-1.3
2024/03/02 02:00:00,10.9,-1.4
2024/03/02 02:10:00,11.8,-1.2
2024/03/02 02:20:00,12.3,-1.5
2024/03/02 02:30:00,12.7,-1.3
2024/03/02 02:40:00,13.2,-1.5
2024/03/02 02:50:00,13.3,-1.3
2024/03/02 03:00:00,14.0,-1.3
2024/03/02 03:10:00,14.4,-1.3
2024/03/02 03:20:00,14.6,-1.5
2024/03/02 03:30:00,15.2,-1.6
2024/03/02 03:40:00,15.6,-1.9
2024/03/02 03:50:00,16.1,-1.4
2024/03/02 04:00:00,27.7,-1.6
2024/03/02 04:10:00,33.7,-1.8
2024/03/02 04:20:00,33.4,-1.6
2024/03/02 04:30:00,33.8,-1.7
2024/03/02 04:40:00,33.9,-1.7
2024/03/02 04:50:00,34.1,-1.6
2024/03/02 05:00:00,34.1,-1.9
2024/03/02 05:10:00,33.9,-1.8
2024/03/02 05:20:00,34.8,-1.9
2024/03/02 05:30:00,35.6,-1.9
2024/03/02 05:40:00,36.3,-2.1
2024/03/02 05:50:00,37.6,-1.8
2024/03/02 06:00:00,---,-2.0
2024/03/02 06:10:00,38.0,-2.1
2024/03/02 06:20:00,39.0,-2.2
2024/03/02 06:30:00,39.4,-2.1
2024/03/02 06:40:00,39.3,-2.1
2024/03/02 06:50:00,39.4,-2.1
2024/03/02 07:00:00,---,-1.9
2024/03/02 07:10:00,10.1,-1.9
2024/03/02 07:20:00, 9.8,-1.7
2024/03/02 07:30:00, 9.8,-1.6
2024/03/02 07:40:00,---,-1.7
2024/03/02 07:50:00,---,-1.5
2024/03/02 08:00:00,---,-1.3
2024/03/02 08:10:00,---,-1.1
2024/03/02 08:20:00,---,-1.4
2024/03/02 08:30:00,---,-1.1
2024/03/02 08:40:00,---,-1.2
2024/03/02 08:50:00,---,-0.6
2024/03/02 09:00:00,---, 0.2
2024/03/02 09:10:00,---,-0.5
2024/03/02 09:20:00, 0.0, 1.6
2024/03/02 09:30:00, 0.0, 3.7
2024/03/02 09:40:00, 0.0, 1.5
2024/03/02 09:50:00, 0.0, 2.9
2024/03/02 10:00:00, 0.0, 7.9
2024/03/02 10:10:00, 0.0, 6.2
2024/03/02 10:20:00, 0.0, 6.5
2024/03/02 10:30:00, 0.0, 9.6
2024/03/02 10:40:00,97.3, 6.4
2024/03/02 10:50:00,124.0, 5.7
2024/03/02 11:00:00,86.9, 4.7
2024/03/02 11:10:00,---, 2.6
2024/03/02 11:20:00,64.7, 6.0
2024/03/02 11:30:00,72.0, 4.0
2024/03/02 11:40:00,93.2, 4.5
2024/03/02 11:50:00,83.7, 2.9
2024/03/02 12:00:00,37.2, 2.2
2024/03/02 12:10:00,---, 3.8
2024/03/02 12:20:00,61.5, 3.0
2024/03/02 12:30:00,36.1, 2.9
2024/03/02 12:40:00,54.0, 4.2
2024/03/02 12:50:00,---, 3.6
2024/03/02 13:00:00,34.8, 3.9
2024/03/02 13:10:00,34.6, 4.5
2024/03/02 13:20:00,34.1, 2.3
2024/03/02 13:30:00,34.4, 2.9
2024/03/02 13:40:00,34.1, 2.6
2024/03/02 13:50:00,33.9, 4.8
2024/03/02 14:00:00,33.6, 5.5
2024/03/02 14:10:00,33.0, 4.5
2024/03/02 14:20:00,32.5, 1.6
2024/03/02 14:30:00,32.5, 1.3
2024/03/02 14:40:00,32.5, 1.6
2024/03/02 14:50:00,32.4, 1.3
2024/03/02 15:00:00,33.0, 1.6
2024/03/02 15:10:00,32.5, 1.3
2024/03/02 15:20:00,32.3, 1.1
2024/03/02 15:30:00,32.1, 1.2
2024/03/02 15:40:00,31.9, 1.1
2024/03/02 15:50:00,31.7, 1.7
2024/03/02 16:00:00,31.6, 3.0
2024/03/02 16:10:00,31.5, 2.0
2024/03/02 16:20:00,31.3, 1.4
2024/03/02 16:30:00,31.2, 1.1
2024/03/02 16:40:00,31.1, 0.7
2024/03/02 16:50:00,31.1, 0.9
2024/03/02 17:00:00,30.9, 0.1
2024/03/02 17:10:00,30.8, 0.2
2024/03/02 17:20:00,30.7,-0.2
2024/03/02 17:30:00,30.6,-0.6
2024/03/02 17:40:00,30.5,-0.9
2024/03/02 17:50:00,30.3,-1.2
2024/03/02 18:00:00,30.2,-1.5
2024/03/02 18:10:00,30.2,-1.6
2024/03/02 18:20:00,30.0,-1.9
2024/03/02 18:30:00,29.7,-1.9
2024/03/02 18:40:00,29.4,-2.2
2024/03/02 18:50:00,29.0,-2.3
2024/03/02 19:00:00,28.3,-2.3
2024/03/02 19:10:00,59.8,-2.5
2024/03/02 19:20:00,51.8,-2.6
2024/03/02 19:30:00,---,-2.3
2024/03/02 19:40:00,28.0,-2.8
2024/03/02 19:50:00,---,-2.7
2024/03/02 20:00:00,28.1,-2.8
2024/03/02 20:10:00,28.1,-3.0
2024/03/02 20:20:00,27.9,-3.3
2024/03/02 20:30:00,28.1,-3.3
2024/03/02 20:40:00,28.0,-3.4
2024/03/02 20:50:00,27.9,-3.4
2024/03/02 21:00:00,27.7,-3.2
2024/03/02 21:10:00,27.7,-3.7
2024/03/02 21:20:00,27.6,-3.8
2024/03/02 21:30:00,27.6,-3.9
2024/03/02 21:40:00,27.5,-3.9
2024/03/02 21:50:00,27.5,-4.1
2024/03/02 22:00:00,27.5,-4.2
2024/03/02 22:10:00,27.4,-4.1
2024/03/02 22:20:00,27.3,-4.3
2024/03/02 22:30:00,27.3,-4.3
2024/03/02 22:40:00,27.3,-3.7
2024/03/02 22:50:00,27.2,-4.1
2024/03/02 23:00:00,27.2,-4.3
2024/03/02 23:10:00,27.1,-4.3
2024/03/02 23:20:00,27.2,-4.1
2024/03/02 23:30:00,27.2,-4.3
2024/03/02 23:40:00,27.0,-4.3
2024/03/02 23:50:00,26.9,-4.4
